Hannover, Germany

7:03 PM CEST on September 25, 2017 (GMT +0200)
Hannover

Weather History for EDDV - September, 2017

Change the Weather History Date:

Wednesday, September 13, 2017

  Actual Average Record
Temperature  
Mean Temperature 58 °F -  
Max Temperature 64 °F 62 °F 89 °F (2016)
Min Temperature 51 °F 46 °F 39 °F (2012)
Degree Days  
Heating Degree Days 8    
Growing Degree Days 8 (Base 50)    
Moisture  
Dew Point 47 °F    
Average Humidity 72    
Maximum Humidity 94    
Minimum Humidity 45    
Precipitation  
Precipitation 0.00 in 0.06 in - ()
Sea Level Pressure  
Sea Level Pressure 29.49 in    
Wind  
Wind Speed 13 mph ()    
Max Wind Speed 29 mph    
Max Gust Speed 50 mph    
Visibility 5.9 miles    
Events Rain    
Averages and records for this station are not official NWS values.
T = Trace of Precipitation, MM = Missing Value Source: Averaged Metar Reports

Daily Weather History Graph

Daily Weather History Graph

Search for Another Location

Airport or City:

Trip Planner

Search our weather history database for the weather conditions in past years. The results will help you decide how hot, cold, wet, or windy it might be!

Date:

Astronomy

Sep. 13, 2017 Rise Set
Actual Time 6:52 AM CEST 7:40 PM CEST
Civil Twilight 6:17 AM CEST 8:15 PM CEST
Nautical Twilight 5:36 AM CEST 8:56 PM CEST
Astronomical Twilight 4:51 AM CEST 9:40 PM CEST
Moon No Moon Rise 3:11 PM CEST (9/13)
Length of Visible Light 13h 57m
Length of Day
12h 48m
Waning Gibbous, 48% of the Moon is Illuminated
Sep 13
Waning Gibbous
Sep 20
New
Sep 28
First Quarter
Oct 5
Full
Oct 12
Last Quarter

Hourly Weather History & Observations

Time (CEST) Temp. Dew Point Humidity Pressure Visibility Wind Dir Wind Speed Gust Speed Precip Events Conditions
12:20 AM 53.6 °F 48.2 °F 82% 29.77 in - SSW 10.4 mph - N/A   Clear
12:50 AM 51.8 °F 48.2 °F 88% 29.74 in - SSW 10.4 mph - N/A   Clear
1:20 AM 51.8 °F 48.2 °F 88% 29.74 in - SSW 10.4 mph - N/A   Clear
1:50 AM 51.8 °F 48.2 °F 88% 29.71 in - SSW 10.4 mph - N/A   Clear
2:20 AM 53.6 °F 48.2 °F 82% 29.71 in - South 11.5 mph - N/A   Clear
2:50 AM 53.6 °F 48.2 °F 82% 29.68 in - South 8.1 mph - N/A   Clear
3:20 AM 53.6 °F 48.2 °F 82% 29.68 in - South 10.4 mph - N/A   Clear
3:50 AM 53.6 °F 48.2 °F 82% 29.65 in - South 11.5 mph - N/A   Clear
4:20 AM 53.6 °F 48.2 °F 82% 29.62 in - South 10.4 mph - N/A   Clear
4:50 AM 53.6 °F 46.4 °F 77% 29.62 in - South 12.7 mph - N/A   Clear
5:20 AM 53.6 °F 46.4 °F 77% 29.59 in 6.2 mi South 13.8 mph - N/A Rain Light Rain
5:50 AM 51.8 °F 48.2 °F 88% 29.56 in 6.2 mi South 10.4 mph - N/A Rain Light Rain
6:20 AM 51.8 °F 48.2 °F 88% 29.53 in 6.2 mi SSE 10.4 mph - N/A Rain Light Rain
6:50 AM 51.8 °F 48.2 °F 88% 29.50 in 6.2 mi SSE 11.5 mph - N/A Rain Light Rain
7:20 AM 53.6 °F 50.0 °F 88% 29.47 in 4.3 mi South 16.1 mph - N/A Rain Light Rain
7:50 AM 51.8 °F 50.0 °F 94% 29.44 in 5.0 mi South 17.3 mph - N/A Rain Light Rain
8:20 AM 53.6 °F 50.0 °F 88% 29.42 in 6.2 mi South 16.1 mph - N/A Rain Light Rain
8:50 AM 53.6 °F 50.0 °F 88% 29.42 in 6.2 mi South 20.7 mph 34.5 mph N/A   Scattered Clouds
9:20 AM 53.6 °F 51.8 °F 94% 29.39 in 6.2 mi South 19.6 mph - N/A Rain Light Rain
9:50 AM 53.6 °F 51.8 °F 94% 29.39 in 3.7 mi South 17.3 mph - N/A Rain Light Rain
10:20 AM 57.2 °F 51.8 °F 82% 29.36 in 6.2 mi SSW 17.3 mph - N/A   Scattered Clouds
10:50 AM 60.8 °F 51.8 °F 72% 29.36 in 6.2 mi SW 17.3 mph 28.8 mph N/A   Scattered Clouds
11:20 AM 60.8 °F 51.8 °F 72% 29.36 in 6.2 mi SW 18.4 mph - N/A Rain Light Rain
11:50 AM 60.8 °F 51.8 °F 72% 29.36 in 6.2 mi SW 19.6 mph 32.2 mph N/A   Mostly Cloudy
12:20 PM 57.2 °F 50.0 °F 77% 29.36 in 5.6 mi WSW 26.5 mph 44.9 mph N/A Rain Light Rain
12:50 PM 59.0 °F 51.8 °F 77% 29.36 in 6.2 mi WSW 19.6 mph 31.1 mph N/A Rain Light Rain
1:20 PM 60.8 °F 51.8 °F 72% 29.36 in 6.2 mi WSW 24.2 mph 36.8 mph N/A Rain Light Rain
1:50 PM 64.4 °F 50.0 °F 59% 29.36 in 6.2 mi WSW 25.3 mph 40.3 mph N/A   Scattered Clouds
2:20 PM 55.4 °F 50.0 °F 82% 29.39 in 6.2 mi West 28.8 mph 48.3 mph N/A Rain Light Rain Showers
2:50 PM 62.6 °F 50.0 °F 63% 29.39 in 6.2 mi West 23.0 mph 36.8 mph N/A   Scattered Clouds
3:20 PM 64.4 °F 46.4 °F 52% 29.39 in 6.2 mi West 20.7 mph 36.8 mph N/A   Scattered Clouds
3:50 PM 62.6 °F 44.6 °F 52% 29.42 in 6.2 mi West 28.8 mph 49.5 mph N/A   Mostly Cloudy
4:20 PM 62.6 °F 46.4 °F 55% 29.42 in - West 23.0 mph 41.4 mph N/A   Clear
4:50 PM 62.6 °F 46.4 °F 55% 29.42 in 6.2 mi West 21.9 mph 39.1 mph N/A   Scattered Clouds
5:20 PM 62.6 °F 42.8 °F 48% 29.42 in - West 21.9 mph 36.8 mph N/A   Clear
5:50 PM 62.6 °F 41.0 °F 45% 29.44 in - West 23.0 mph 40.3 mph N/A   Clear
6:20 PM 62.6 °F 41.0 °F 45% 29.44 in - WSW 20.7 mph 36.8 mph N/A   Clear
6:50 PM 60.8 °F 41.0 °F 48% 29.44 in - West 20.7 mph 38.0 mph N/A   Clear
7:20 PM 60.8 °F 42.8 °F 52% 29.44 in - West 13.8 mph - N/A   Clear
7:50 PM 59.0 °F 42.8 °F 55% 29.44 in - WSW 13.8 mph - N/A   Clear
8:20 PM 57.2 °F 42.8 °F 59% 29.44 in - WSW 12.7 mph - N/A   Clear
8:50 PM 57.2 °F 42.8 °F 59% 29.47 in - SW 9.2 mph - N/A   Clear
9:20 PM 57.2 °F 44.6 °F 63% 29.47 in - SW 9.2 mph - N/A   Clear
9:50 PM 57.2 °F 44.6 °F 63% 29.47 in - SW 10.4 mph - N/A   Clear
10:20 PM 57.2 °F 44.6 °F 63% 29.47 in - SW 12.7 mph - N/A   Clear
10:50 PM 57.2 °F 44.6 °F 63% 29.47 in - SW 10.4 mph - N/A   Clear
11:20 PM 55.4 °F 44.6 °F 67% 29.47 in - WSW 11.5 mph - N/A   Clear
11:50 PM 55.4 °F 46.4 °F 72% 29.47 in - SW 10.4 mph - N/A   Clear